sat.trackr.live / text

‹ back to catalog

STARLINK-6030

NORAD 56107 · 2023-046Q

PAYLOAD ACTIVE UNKNOWN

§ Identity

Operator
Country
US
Launch date
2023-03-29
Launch site
AFETR
Launch vehicle
Mass (kg)
RCS (m²)

Purposes: comms

External: N2YO · Heavens-Above · Gunter

§ Orbital elements

Epoch: 2026-09-19T22:12:58.966272Z

Period
94.27 min
Inclination
43.0037°
Eccentricity
0.0001254
Mean motion
15.27577627 rev/d
Perigee alt
482.2 km
Apogee alt
483.9 km
Semi-major
6,861.2 km
B*
1.9580e-5
RAAN
144.9275°
Arg perigee
264.0891°
Mean anomaly
95.9817°
Rev number
19,173

§ Raw data

STARLINK-60301 56107U 23046Q   26262.92568248  .00000277  00000+0  19580-4 0  99982 56107  43.0037 144.9275 0001254 264.0891  95.9817 15.27577627191731

JSON: /api/v1/satellites/56107 · /tle

For live sub-satellite position, see the globe view (requires WebGL).

§ Visibility from observer

Set your observer location to see the next 7 days of passes ≥ 10°. The values pass through the URL so the page stays shareable.

No JS? Fill the form by hand. The geolocation button needs JavaScript.